User: anonymous   Login
Location: Evergreen Manor
(41.4083°N, 81.4939°W)
Time: 07:49:33
(UTC+00:00)
Language:

FENGYUN 3A - Orbit

View from above orbital plane
View from above orbital plane
View from above satellite
View from above satellite

Ground track
Ground track

The orbit data is extracted from the following two-line orbital elements,

1 32958U 08026A   20049.94361918  .00000014  00000-0  26515-4 0  9997
2 32958  98.3971  41.9272 0008100 330.6327  29.4393 14.18618674607889
Epoch (UTC): 18 February 2020 22:38:48
Eccentricity: 0.0008100
inclination: 98.3971°
perigee height: 824 km
apogee height: 836 km
right ascension of ascending node: 41.9272°
argument of perigee: 330.6327°
revolutions per day: 14.18618674
mean anomaly at epoch: 29.4393°
orbit number at epoch: 60788

The dashed part of the orbit path shows where the satellite is in the earth's shadow,  

DLR